User: anonymous   Login
Location: Unspecified
(43.4354°N, 0.0000°E)
Time: 10:47:36
(UTC+00:00)
Language:

AIST 2D - Orbit

View from above orbital plane
View from above orbital plane
View from above satellite
View from above satellite

Ground track
Ground track

The orbit data is extracted from the following two-line orbital elements,

1 41465U 16026B   19229.21402740  .00000809  00000-0  26963-4 0  9995
2 41465  97.1836 122.9639 0009374 272.4646 203.1812 15.33879622184626
Epoch (UTC): 17 August 2019 05:08:11
Eccentricity: 0.0009374
inclination: 97.1836°
perigee height: 458 km
apogee height: 470 km
right ascension of ascending node: 122.9639°
argument of perigee: 272.4646°
revolutions per day: 15.33879622
mean anomaly at epoch: 203.1812°
orbit number at epoch: 18462

The dashed part of the orbit path shows where the satellite is in the earth's shadow,  

DLR